CZ-6A DEB

Satellite information

Favourite Embed

Satellite Type and Status

DEBRISIN ORBIT

Key statistics

Satellite CZ-6A DEB at a glance.

Uptime

275

Days in orbit

Revolutions

≈ 14.4

Per day

Orbit

LEO

Low Earth Orbit

Inclination

89.1

Latest

Satellite identification and parameters

Extended collection of information and parameters for CZ-6A DEB.

Object identification

Identified? True

Debris? True

Object name: CZ-6A DEB

International designator: 2024-140ZT

Object number (NORAD): 61461

Object ID (CCSDS): 61461

Country: PEOPLES REPUBLIC OF CHINA (PRC)

Current information (Y/N): Y

RCS size: SMALL

Orbital parameters

Period: 100.324 minutes

Inclination: 89.1268 deg

SMA: 7152.056 km

Apoapsis: 789.1 km

Periapsis: 758.743 km

RAAN: 323.8442 deg

Eccentricy: 0.0021223

Argument of periapsis: 290.2754 deg

Mean anomaly: 69.6164 deg

Mean motion: 14.35345239 rev/day

Mean motion (dot): 0.00003918 rev/day2

B* drag term: 0.0013587 1/REarth

Two-line elements (TLE)

Creation date: May 8, 2025, 3:01 a.m.

Reference frame: TEME

Reference center: EARTH

Epoch: May 7, 2025, 12:49 p.m. UTC

TLE line 0: 0 CZ-6A DEB

TLE line 1: 1 61461U 24140ZT 25127.53462740 .00003918 00000-0 13587-2 0 9994

TLE line 2: 2 61461 89.1268 323.8442 0021223 290.2754 69.6164 14.35345239 36100

Live tracking on map

Real-time ground track for satellite CZ-6A DEB.

In-orbit conjunctions

A list of the most updated potential collisions computed for object CZ-6A DEB.

Target Orbit TCA Probability of collision Miss distance Type
CZ-6A DEB LEO 2025-02-23 03:59:24 0.000724257 367.0 (m) DEBRIS
CZ-6A DEB LEO 2025-02-23 03:58:56 0.001158018 67.0 (m) DEBRIS
CZ-6A DEB LEO 2025-02-23 03:58:25 0.003945638 321.0 (m) DEBRIS
CZ-6A DEB SSO 2025-02-18 16:27:25 0.0001227185 96.0 (m) DEBRIS
FENGYUN 1C DEB SSO 2025-02-15 17:01:40 0.0003654722 527.0 (m) DEBRIS

Associated space launch

18 Low Earth Orbit communication satellites with Ku, Q and V band payloads for the G60 constellation operated by Shanghai Spacecom Satellite Technology (SSST) with funding backed by the Shanghai local government. Initial constellation will consist of 1296 satellites by 2027 with long term plans to expand it to 12000 satellites.

CZ-6A DEB was lifted into orbit during the mission ‘Long March 6A | G60 Polar Group 01’, on board a Long March 6A space rocket.

The launch took place on Aug. 6, 2024, 6:42 a.m. from Launch Complex 9A.

For more information about the launch, click the button.

Launch to space Long March 6A | G60 Polar Group 01
Long March 6A | G60 Polar Group 01

Agency: N/A

Status: Launch Successful

Launch date: Aug. 6, 2024, 6:42 a.m. UTC

Rocket: Long March 6A

Launch pad: Launch Complex 9A

Location: Taiyuan Satellite Launch Center, People's Republic of China

...

Latest news about this satellite

News about space launch
Brightness of first Chinese broadband constellation satellites alarms astronomers

The first satellites of a Chinese broadband constellation are significantly brighter than those of Western systems, posing a new challenge for astronomers.

News about space launch
Chinese rocket stage breaks up into cloud of more than 700 pieces of space debris

HELSINKI — A Chinese Long March 6A rocket’s upper stage has fragmented into a cloud of over 700 pieces of space debris, adding to concerns about long-term orbital safety. China […]

News about space launch
China's Thousand Sails Megaconstellation Kicks Off with Dangerous Debris Field

China's Thousand Sails Megaconstellation Kicks Off with Dangerous Debris Field


Newsletter sign-up

Weekly statistics, charts and insights to help you stay on top of the space industry.